1315180828447,131.313
1315180888447,131.484
1315180948447,131.529
1315181008447,131.538
1315181068447,131.320
1315181128447,131.459
1315181188447,131.633
1315181248447,131.467
1315181308447,131.627
1315181368447,131.482
1315181428447,131.407
1315181488447,131.520
1315181548447,131.745
1315181608447,131.575
1315181668447,131.714
1315181728447,131.506
1315181788447,131.722
1315181848447,131.614
1315181908447,131.507
1315181968447,131.478
1315182028447,131.532
1315182088447,131.692
1315182148447,131.503
1315182208447,131.374
1315182268447,131.475
1315182328447,131.196
1315182388447,131.491
1315182448447,131.406
1315182508447,131.169
1315182568447,131.522
1315182628447,131.185
1315182688447,131.014
1315182748447,131.040
1315182808447,130.971
1315182868447,130.782
1315182928447,131.187
1315182988447,130.856
1315183048447,130.966
1315183108447,130.712
1315183168447,131.041
1315183228447,130.627
1315183288447,130.737
1315183348447,130.872
1315183408447,130.556
1315183468447,130.729
1315183528447,131.067
1315183588447,131.028
1315183648447,130.815
1315183708447,130.659
1315183768447,130.739
1315183828447,130.630
1315183888447,130.546
1315183948447,130.427
1315184008447,130.774
1315184068447,130.600
1315184128447,130.965
1315184188447,131.252
1315184248447,130.959
1315184308447,131.052
1315184368447,130.646
1315184428458,130.829
1315184488458,130.723
1315184548458,130.835
1315184608458,130.857
1315184668458,130.712
1315184728458,130.785
1315184788458,130.990
1315184848458,130.999
1315184908458,131.092
1315184968458,130.718
1315185028458,131.046
1315185088458,131.088
1315185628458,131.532
1315185688458,131.548
1315185748458,131.574
1315185808458,131.442
1315185868458,131.474
1315185928458,131.601
1315185988458,131.982
1315186048458,132.007
1315186108458,131.956
1315186168458,132.066
1315186228458,131.967
1315186288458,131.967
1315186348458,131.529
1315186408458,131.685
1315186468458,131.597
1315186528458,131.493
1315186588458,131.485
1315186648457,131.723
1315186708457,131.413
1315186768457,131.671
1315186828457,131.595
1315186888457,131.358
1315186948457,131.465
1315187008458,131.690
1315187068458,131.420
1315187128458,131.806
1315187188458,131.922
1315187248458,131.897
1315187308458,131.887
1315187368458,131.761
1315187428458,131.569
1315187488458,132.029
1315187548458,131.600
1315187608458,131.609
1315187668458,131.502
1315187728458,131.430
1315187788458,132.040
1315187848458,131.393
1315187908458,131.488
1315187968457,131.340
1315188028468,131.466
1315188088468,131.233
1315188148468,131.416
1315188208468,131.609
1315188268468,131.550
1315188328468,131.498
1315188388468,131.429
1315188448468,131.571
1315188508468,131.573
1315188568468,131.364
1315188628468,131.235
1315188688468,131.388
1315188748468,131.521
1315188808468,131.757
1315188868468,131.827
1315188928468,131.888
1315188988468,131.659
1315189048468,131.840
1315189108468,131.300
1315189168468,131.597
1315189228468,131.601
1315189288468,131.748
1315189348468,131.403
1315189408468,131.581
1315189468468,131.689
1315189528468,131.567
1315189588468,131.870
1315189648468,132.130
1315189708468,131.566
1315189768468,131.521
1315189828468,131.795
1315189888468,131.838
1315189948468,131.770
1315190008468,131.861
1315190068468,131.773
1315190128468,131.648
1315190188468,131.424
1315190248468,131.294
1315190308468,131.363
1315190368468,131.615
1315190428468,131.592
1315190488468,131.909
1315190548468,131.628
1315190608468,131.638
1315190668468,131.868
1315190728468,131.814
1315190788468,131.824
1315190848468,131.587
1315190908468,131.671
1315190968468,131.462
1315191028468,131.475
1315191088468,131.169
1315191148468,131.487
1315191208468,131.422
1315191268468,131.306
1315191328468,130.949
1315191388468,131.136
1315191448468,131.331
1315191508468,131.238
1315191568468,131.114
1315191628477,130.754
1315191688477,131.204
1315191748477,131.040
1315191808477,131.172
1315191868477,130.774
1315191928478,131.195
1315191988477,131.089
1315192048477,131.327
1315192108477,131.367
1315192168477,131.164
1315192228477,131.147
1315192288478,131.037
1315192348478,130.927
1315192408478,131.021
1315192468478,131.140
1315192528478,130.996
1315192588478,131.088
1315192648477,131.112
1315192708477,131.095
1315192768477,131.151
1315192828477,131.102
1315192888477,131.235
1315192948477,131.355
1315193008477,131.288
1315193068477,131.459
1315193128477,131.464
1315193188477,131.019
1315193248477,131.438
1315193308477,131.564
1315193368477,131.630
1315193428477,131.898
1315193488477,131.444
1315193548477,131.390
1315193608478,131.693
1315193668478,131.797
1315193728478,132.151
1315193788478,131.879
1315193848478,131.985
1315193908478,131.981
1315193968478,131.892
1315194028477,131.821
1315194088477,132.395
1315194148477,132.137
1315194208477,132.358
1315194268477,131.852
1315194328477,132.052
1315194388477,131.931
1315194448477,131.801
1315194508477,132.164
1315194568477,132.179
1315194628478,132.416
1315194688477,132.650
1315194748477,132.548
1315194808477,132.441
1315194868477,132.717
1315194928477,132.195
1315194988478,132.688
1315195048478,132.111
1315195108478,132.241
1315195168478,131.984
1315195228487,132.557
1315195288487,132.315
1315195348487,132.392
1315195408487,132.345
1315195468487,132.374
1315195528487,132.478
1315195588487,132.552
1315195648487,132.179
1315195708487,132.626
1315195768487,132.621
1315195828487,132.533
1315195888487,132.492
1315195948487,132.298
1315196008487,132.713
1315196068487,132.363
1315196128487,132.644
1315196188487,132.580
1315196248487,132.411
1315196308487,132.362
1315196368487,132.581
1315196428487,132.484
1315196488487,132.651
1315196548487,132.862
1315196608487,132.873
1315196668487,132.936
1315196728487,132.657
1315196788487,132.799
1315196848487,133.015
1315196908487,132.607
1315196968487,133.058
1315197028487,132.568
1315197088487,132.545
1315197148487,132.331
1315197208487,132.541
1315197268487,132.393
1315197328487,132.310
1315197388487,132.462
1315197448487,132.452
1315197508487,132.476
1315197568487,132.386
1315197628487,132.326
1315197688487,132.630
1315197748487,132.506
1315197808487,132.444
1315197868487,132.649
1315197928487,132.851
1315197988487,132.370
1315198048487,132.449
1315198108487,132.423
1315198168487,132.008
1315198228487,131.932
1315198288487,132.031
1315198348487,132.387
1315198408487,131.747
1315198468487,132.373
1315198528487,131.998
1315198588487,132.149
1315198648487,132.156
1315198708487,131.887
1315198768487,132.136
1315198828497,132.061
1315198888497,132.112
1315198948497,131.954
1315199008497,131.886
1315199068497,132.164
1315199128497,131.910
1315199188497,132.046
1315199248497,132.090
1315199308497,132.068
1315199368497,132.023
1315199428497,132.063
1315199488497,131.941
1315199548497,132.246
1315199608497,132.444
1315199668497,132.151
1315199728497,132.169
1315199788497,132.338
1315199848497,132.489
1315199908497,132.380
1315199968497,132.244
1315200028497,132.311
1315200088497,132.232
1315200148497,132.391
1315200208497,132.592
1315200268497,132.428
1315200328497,132.778
1315200388497,132.708
1315200448497,132.614
1315200508497,132.820
1315200568497,132.553
1315200628497,132.477
1315200688497,132.564
1315200748497,132.329
1315200808497,132.296
1315200868497,132.439
1315200928497,132.206
1315200988497,132.234
1315201048497,132.398
1315201108497,132.463
1315201168497,132.222
1315201228497,132.214
1315201288497,132.305
1315201348497,132.334
1315201408497,131.869
1315201468497,132.411
1315201528497,132.075
1315201588497,132.283
1315201648497,132.191
1315201708497,131.933
1315201768497,132.065
1315201828497,132.178
1315201888497,131.884
1315201948497,131.614
1315202008497,131.832
1315202068497,131.670
1315202128497,131.940
1315202188497,131.633
1315202248497,131.783
1315202308497,131.835
1315202368497,131.807
1315202428507,131.855
1315202488507,132.186
1315202548507,132.280
1315202608507,131.923
1315202668507,132.183
1315202728507,132.055
1315202788507,132.272
1315202848507,132.054
1315202908507,132.206
1315202968507,132.321
1315203028507,132.225
1315203088507,132.225
1315203148507,132.595
1315203208507,132.160
1315203268507,132.490
1315203328507,132.402
1315203388507,132.267
1315203448507,131.876
1315203508507,132.069
1315203568507,132.362
1315203628507,132.195
1315203688507,132.142
1315203748507,132.428
1315203808507,132.333
1315203868507,132.295
1315203928507,132.347
1315203988507,132.605
1315204048507,132.793
1315204108507,132.567
1315204168507,132.720
1315204228507,132.591
1315204288507,132.476
1315204348507,132.362
1315204408507,132.393
1315204468507,132.438
1315204528507,132.557
1315204588507,132.606
1315204648507,132.562
1315204708507,133.682
1315204768507,132.913
1315204828507,132.816
1315204888507,132.660
1315204948507,132.860
1315205008507,132.926
1315205068507,133.029
1315205128507,133.434
1315205188507,133.233
1315205248507,133.400
1315205308507,133.769
1315205368507,133.456
1315205428507,133.537
1315205488507,133.470
1315205548507,133.551
1315205608507,133.415
1315205668507,133.642
1315205728507,133.481
1315205788507,133.547
1315205848507,133.223
1315205908507,133.099
1315205968507,133.163
1315206028517,133.271
1315206088517,133.439
1315206148517,133.452
1315206208517,133.309
1315206268517,133.513
1315206328517,133.653
1315206388517,133.674
1315206448517,133.631
1315206508517,133.734
1315206568517,133.745
1315206628517,133.820
1315206688517,133.667
1315206748517,134.029
1315206808517,133.869
1315206868517,133.658
1315206928517,133.540
1315206988517,133.599
1315207048517,133.574
1315207108517,133.727
1315207168517,133.863
1315207228517,133.714
1315207288517,133.865
1315207348517,133.720
1315207408517,133.407
1315207468517,133.326
1315207528517,133.420
1315207588517,133.168
1315207648517,133.488
1315207708517,133.302
1315207768517,133.337
1315207828517,133.324
1315207888517,133.372
1315207948517,133.339
1315208008517,133.336
1315208068517,133.563
1315208128517,133.414
1315208188517,133.347
1315208248517,133.095
1315208308517,133.178
1315208368517,133.486
1315208428517,133.449
1315208488517,133.481
1315208548517,133.273
1315208608517,133.397
1315208668517,133.325
1315208728517,133.477
1315208788517,133.112
1315208848517,133.067
1315208908517,133.500
1315208968517,133.130
1315209028517,133.370
1315209088517,133.230
1315209148517,133.409
1315209208517,132.973
1315209268517,133.119
1315209328517,133.252
1315209388517,133.626
1315209448517,133.352
1315209508517,133.227
1315209568517,133.234
1315209628527,133.213
1315209688527,133.369
1315209748527,133.081
1315209808527,133.291
1315209868527,133.013
1315209928527,133.051
1315209988527,132.723
1315210048527,133.130
1315210108527,132.879
1315210168527,132.935
1315210228527,132.893
1315210288527,132.776
1315210348527,132.646
1315210408527,132.876
1315210468527,132.733
1315210528527,132.781
1315210588527,132.807
1315210648527,132.556
1315210708527,132.617
1315210768527,132.504
1315210828527,132.845
1315210888527,132.571
1315210948527,132.619
1315211008527,132.573
1315211068527,132.433
1315211128527,132.808
1315211188527,132.721
1315211248527,132.479
1315211308527,133.005
1315211368527,132.505
1315211428527,132.585
1315211488527,132.690
1315211548527,132.745
1315211608527,132.681
1315211668527,132.779
1315211728527,132.542
1315211788527,132.778
1315211848527,132.579
1315211908527,132.678
1315211968527,132.555
1315212028527,132.647
1315212088527,132.665
1315212148527,132.652
1315212208527,132.796
1315212268527,132.450
1315212328527,132.821
1315212388527,132.752
1315212448527,133.113
1315212508527,132.564
1315212568527,132.776
1315212628527,132.812
1315212688527,132.821
1315212748527,132.586
1315212808527,132.497
1315212868527,132.526
1315212928527,132.283
1315212988527,132.403
1315213048527,132.346
1315213108527,132.571
1315213168527,132.666
1315213228537,132.718
1315213288537,132.579
1315213348537,132.268
1315213408537,132.686
1315213468537,132.430
1315213528537,132.570
1315213588537,132.374
1315213648537,132.435
1315213708537,132.808
1315213768537,132.712
1315213828537,132.551
1315213888537,132.574
1315213948537,132.631
1315214008537,132.400
1315214068537,132.665
1315214128537,132.475
1315214188537,132.301
1315214248537,132.465
1315214308537,132.221
1315214368537,132.180
1315214428537,132.104
1315214488537,132.174
1315214548537,132.308
1315214608537,132.413
1315214668537,132.274
1315214728537,132.199
1315214788537,132.266
1315214848537,132.549
1315214908537,132.237
1315214968537,132.092
1315215028537,131.969
1315215088537,132.258
1315215148537,132.070
1315215208537,132.170
1315215268537,131.847
1315215328537,132.210
1315215388537,132.032
1315215448537,132.064
1315215508537,131.787
1315215568537,132.149
1315215628537,132.105
1315215688537,131.952
1315215748537,132.004
1315215808537,132.267
1315215868537,132.027
1315215928537,131.874
1315215988537,132.082
1315216048537,131.830
1315216108537,131.810
1315216168537,131.801
1315216228537,131.798
1315216288537,131.627
1315216348537,131.600
1315216408537,131.872
1315216468537,131.553
1315216528537,131.594
1315216588537,131.672
1315216648537,131.388
1315216708537,131.444
1315216768537,131.537
1315216828548,131.716
1315216888548,131.632
1315216948548,131.622
1315217008548,131.800
1315217068548,131.626
1315217128548,131.414
1315217188548,131.572
1315217248548,131.652
1315217308548,131.157
1315217368548,131.492
1315217428548,131.355
1315217488548,131.356
1315217548548,131.513
1315217608548,131.069
1315217668548,131.454
1315217728548,131.570
1315217788548,131.252
1315217848548,131.359
1315217908548,131.408
1315217968548,131.484
1315218028548,131.800
1315218088548,131.373
1315218148548,131.412
1315218208548,131.325
1315218268548,131.487
1315218328548,131.574
1315218388548,131.272
1315218448548,131.074
1315218508548,131.386
1315218568548,131.118
1315218628548,131.251
1315218688548,131.371
1315218748548,131.290
1315218808548,131.516
1315218868548,131.472
1315218928548,131.364
1315218988548,131.427
1315219048548,131.252
1315219108548,131.163
1315219168548,131.233
1315219228548,131.025
1315219288548,131.125
1315219348548,130.943
1315219408548,131.002
1315219468548,131.146
1315219528548,131.245
1315219588548,131.264
1315219648548,131.366
1315219708548,131.041
1315219768548,131.162
1315219828548,131.307
1315219888548,131.195
1315219948548,131.049
1315220008548,131.294
1315220068548,131.139
1315220128548,131.224
1315220188548,130.920
1315220248548,131.143
1315220308548,131.310
1315220368548,130.868
1315220428558,131.503
1315220488558,131.053
1315220548558,130.964
1315220608558,131.172
1315220668558,130.967
1315220728558,131.108
1315220788558,131.264
1315220848558,130.653
1315220908558,131.167
1315220968558,131.044
1315221028558,130.708
1315221088558,130.977
1315221148558,131.235
1315221208558,131.231
1315221268558,131.119
1315221328558,131.193
1315221388558,130.848
1315221448558,131.055
1315221508558,130.625
1315221568558,130.903
1315221628558,131.008
1315221688558,130.767
1315221748558,130.776
1315221808558,131.051
1315221868558,130.650
1315221928558,131.198
1315221988558,130.822
1315222048558,130.753
1315222108558,130.591
1315222168558,130.753
1315222228558,130.664
1315222288558,130.840
1315222348558,130.793
1315222408558,130.814
1315222468558,130.872
1315222528558,130.756
1315222588558,131.070
1315222648558,131.118
1315222708558,130.743
1315222768558,130.852
1315222828558,130.835
1315222888558,130.899
1315222948558,131.078
1315223008558,130.726
1315223068558,130.877
1315223128558,131.145
1315223188558,131.117
1315223248558,130.938
1315223308558,131.129
1315223368558,131.069
1315223428558,131.162
1315223488558,131.329
1315223548558,131.197
1315223608558,130.951
1315223668558,130.785
1315223728558,130.692
1315223788558,130.697
1315223848558,130.764
1315223908558,130.634
1315223968558,130.811
1315224028568,130.847
1315224088568,130.854
1315224148568,130.465
1315224208568,130.655
1315224268568,130.463
1315224328568,130.633
1315224388568,130.493
1315224448568,130.388
1315224508568,130.481
1315224568568,130.462
1315224628568,130.371
1315224688568,130.679
1315224748568,130.458
1315224808568,130.602
1315224868568,130.651
1315224928568,130.271
1315224988568,130.430
1315225048568,130.665
1315225108568,130.349
1315225168568,130.231
1315225228568,130.536
1315225288568,130.344
1315225348568,130.360
1315225408568,130.233
1315225468568,130.305
1315225528568,130.286
1315225588568,130.240
1315225648568,130.209
1315225708568,130.783
1315225768568,130.188
1315225828568,130.354
1315225888568,130.200
1315225948568,130.294
1315226008568,130.024
1315226068568,130.264
1315226128568,130.416
1315226188568,130.146
1315226248568,130.397
1315226308568,130.191
1315226368568,130.518
1315226428568,130.148
1315226488568,130.662
1315226548568,130.416
1315226608568,130.198
1315226668568,130.287
1315226728568,130.410
1315226788568,130.254
1315226848568,130.204
1315226908568,130.095
1315226968568,130.162
1315227028568,130.406
1315227088568,130.542
1315227148568,130.236
1315227208568,130.373
1315227268568,130.226
1315227328568,130.162
1315227388568,129.928
1315227448568,130.334
1315227508568,130.369
1315227568568,130.491
1315227628579,129.955
1315227688579,129.748
1315227748579,130.096
1315227808579,130.345
1315227868579,129.978
1315227928579,130.263
1315227988579,130.290
1315228048579,130.424
1315228108579,130.092
1315228168579,130.245
1315228228579,130.080
1315228288579,129.877
1315228348579,129.951
1315228408579,130.020
1315228468579,129.866
1315228528579,129.805
1315228588579,129.871
1315228648579,130.002
1315228708579,129.886
1315228768579,129.869
1315228828579,129.861
1315228888579,129.636
1315228948579,129.807
1315229008579,129.922
1315229068579,129.862
1315229128579,129.733
1315229188579,129.757
1315229248579,129.969
1315229308579,129.692
1315229368579,129.863
1315229428579,129.537
1315229488579,129.842
1315229548579,129.763
1315229608579,129.679
1315229668579,129.671
1315229728579,129.755
1315229788579,129.847
1315229848579,129.973
1315229908579,129.729
1315229968579,129.732
1315230028579,129.818
1315230088579,129.998
1315230148579,129.971
1315230208579,129.814
1315230268579,130.002
1315230328579,129.661
1315230388579,129.910
1315230448579,129.702
1315230508579,130.256
1315230568579,129.850
1315230628579,130.136
1315230688579,130.261
1315230748579,129.994
1315230808579,129.947
1315230868579,130.221
1315230928579,130.248
1315230988579,130.080
1315231048579,129.705
1315231108579,130.027
1315231168579,129.666
1315231228590,129.933
1315231288590,129.905
1315231348590,129.605
1315231408590,130.038
1315231468590,129.935
1315231528590,129.837
1315231588590,130.080
1315231648590,130.012
1315231708590,130.002
1315231768590,129.865
1315231828590,129.725
1315231888590,130.061
1315231948590,129.951
1315232008590,130.077
1315232068590,130.047
1315232128590,129.958
1315232188590,129.922
1315232248590,130.139
1315232308590,130.214
1315232368590,130.195
1315232428590,130.073
1315232488590,129.889
1315232548590,130.038
1315232608590,130.086
1315232668590,130.228
1315232728590,129.707
1315232788590,130.243
1315232848590,130.025
1315232908590,129.841
1315232968590,130.234
1315233028590,130.034
1315233088590,129.798
1315233148590,129.772
1315233208590,130.074
1315233268590,130.198
1315233328590,130.208
1315233388590,130.179
1315233448590,130.642
1315233508590,130.319
1315233568590,130.199
1315233628590,130.367
1315233688590,130.484
1315233748590,130.346
1315233808590,130.224
1315233868590,130.289
1315233928590,130.304
1315233988590,130.360
1315234048590,130.373
1315234108590,130.473
1315234168590,130.214
1315234228590,130.448
1315234288590,130.111
1315234348590,130.356
1315234408590,130.473
1315234468590,130.407
1315234528590,130.525
1315234588590,130.454
1315234648590,130.601
1315234708590,130.542
1315234768590,130.164
1315234828601,130.394
1315234888601,130.583
1315234948601,130.489
1315235008601,130.717
1315235068601,130.556
1315235128601,130.889
1315235188601,130.546
1315235248601,130.933
1315235308601,130.884
1315235368601,130.699
1315235428601,130.448
1315235488601,131.063
1315235548601,131.061
1315235608601,131.154
1315235668601,130.915
1315235728601,130.933
1315235788601,130.956
1315235848601,130.954
1315235908601,130.759
1315235968601,130.960
1315236028601,131.220
1315236088601,131.031
1315236148601,131.349
1315236208601,131.174
1315236268601,131.095
1315236328601,131.127
1315236388601,130.992
1315236448601,131.117
1315236508601,131.018
1315236568601,131.150
1315236628601,131.237
1315236688601,131.091
1315236748601,131.279
1315236808601,131.086
1315236868601,130.931
1315236928601,130.926
1315236988601,131.088
1315237048601,130.987
1315237108601,131.013
1315237168601,131.079
1315237228601,131.075
1315237288601,130.891
1315237348601,130.874
1315237408601,130.860
1315237468601,131.166
1315237528601,130.955
1315237588601,130.921
1315237648601,130.864
1315237708601,131.026
1315237768601,130.849
1315237828601,131.078
1315237888601,131.051
1315237948601,131.011
1315238008601,131.352
1315238068601,131.085
1315238128601,130.869
1315238188601,131.093
1315238248601,131.310
1315238308601,131.174
1315238368601,131.250
1315238428613,131.173
1315238488613,131.158
1315238548613,131.209
1315238608613,131.034
1315238668613,131.201
1315238728613,130.959
1315238788613,131.020
1315238848613,131.056
1315238908612,131.216
1315238968612,130.954
1315239028612,131.200
1315239088612,130.920
1315239148612,131.143
1315239208612,131.183
1315239268612,131.038
1315239328613,131.201
1315239388613,130.982
1315239448613,131.042
1315239508613,130.831
1315239568613,131.332
1315239628612,130.893
1315239688613,130.726
1315239748613,131.237
1315239808613,131.032
1315239868613,131.176
1315239928613,130.978
1315239988613,130.950
1315240048613,131.108
1315240108613,131.048
1315240168613,131.080
1315240228613,131.175
1315240288612,131.057
1315240348612,131.061
1315240408612,131.057
1315240468612,131.218
1315240528612,130.823
1315240588612,131.194
1315240648612,130.947
1315240708613,130.943
1315240768613,130.725
1315240828613,131.140
1315240888613,131.087
1315240948612,130.905
1315241008613,130.998
1315241068613,131.151
1315241128613,130.801
1315241188613,130.837
1315241248613,130.866
1315241308613,130.652
1315241368613,131.122
1315241428613,131.025
1315241488613,130.905
1315241548613,130.868
1315241608612,130.832
1315241668612,130.747
1315241728612,131.068
1315241788612,130.837
1315241848612,131.248
1315241908612,130.985
1315241968612,130.903
1315242028624,131.043
1315242088624,131.121
1315242148624,130.893
1315242208624,131.173
1315242268624,130.850
1315242328624,130.897
1315242388624,131.259
1315242448624,131.179
1315242508624,131.026
1315242568624,130.916
1315242628624,130.741
1315242688624,130.848
1315242748624,131.073
1315242808624,130.672
1315242868624,130.998
1315242928624,130.787
1315242988624,130.697
1315243048624,130.911
1315243108624,130.668
1315243168624,130.864
1315243228624,130.610
1315243288624,130.518
1315243348624,130.586
1315243408624,130.300
1315243468624,130.625
1315243528624,130.253
1315243588624,130.852
1315243648624,130.572
1315243708624,130.597
1315243768624,130.519
1315243828624,130.662
1315243888624,130.618
1315243948624,130.701
1315244008624,130.487
1315244068624,130.470
1315244128624,130.377
1315244188624,130.634
1315244248624,130.362
1315244308624,130.555
1315244368624,130.415
1315244428624,130.512
1315244488624,130.449
1315244548624,130.530
1315244608624,130.288
1315244668624,130.437
1315244728624,130.166
1315244788624,130.500
1315244848624,130.450
1315244908624,130.229
1315244968624,130.463
1315245028624,130.521
1315245088624,130.400
1315245148624,130.103
1315245208624,130.320
1315245268624,130.136
1315245328624,130.757
1315245388624,130.304
1315245448624,130.467
1315245508624,130.545
1315245568624,130.463
1315245628636,130.124
1315245688636,130.504
1315245748636,130.132
1315245808636,130.353
1315245868636,130.326
1315245928636,130.370
1315245988636,130.159
1315246048636,130.558
1315246108636,130.441
1315246168636,130.866
1315246228636,130.531
1315246288636,130.847
1315246348636,130.324
1315246408636,130.555
1315246468636,130.575
1315246528636,130.370
1315246588636,130.570
1315246648636,130.358